EWG22 EDHL-EDXW

Flight info

Callsign EWG22
Flight time N/A
Altitude 15000
Route HAM1K HAM M852 SOKWO T814 EXNEL DCT OLDIP
Aircraft A320/M-SDE3FGHIRWY/LB1

Departure

Time 2026-04-22 13:03
Airport Lübeck Blankensee Airport (EDHL)

Arrival

Time N/A
Airport Westerland Sylt Airport (EDXW)
Time Latitude Longitude Altitude Speed Heading
2026-04-22 12:20 53.80477 10.70317 53 ft 0 kts 325°
2026-04-22 12:55 53.80475 10.70319 59 ft 2 kts 325°
2026-04-22 12:55 53.80462 10.70335 51 ft 2 kts 328°
2026-04-22 12:56 53.80448 10.70348 54 ft 2 kts 350°
2026-04-22 12:56 53.80435 10.70338 55 ft 1 kts 68°
2026-04-22 12:56 53.80434 10.70333 55 ft 0 kts 69°
2026-04-22 12:57 53.80437 10.70361 51 ft 5 kts 79°
2026-04-22 12:57 53.80449 10.70450 56 ft 10 kts 76°
2026-04-22 12:58 53.80470 10.70565 56 ft 10 kts 72°
2026-04-22 12:58 53.80495 10.70694 54 ft 13 kts 71°
2026-04-22 12:58 53.80522 10.70828 55 ft 10 kts 71°
2026-04-22 12:58 53.80539 10.70913 57 ft 7 kts 72°
2026-04-22 12:59 53.80558 10.71009 60 ft 11 kts 71°
2026-04-22 12:59 53.80579 10.71131 57 ft 12 kts 73°
2026-04-22 12:59 53.80606 10.71281 55 ft 15 kts 73°
2026-04-22 12:59 53.80643 10.71473 56 ft 19 kts 71°
2026-04-22 13:00 53.80651 10.71671 62 ft 14 kts 108°
2026-04-22 13:00 53.80607 10.71848 61 ft 20 kts 113°
2026-04-22 13:00 53.80574 10.72094 58 ft 23 kts 80°
2026-04-22 13:00 53.80622 10.72362 55 ft 25 kts 73°
2026-04-22 13:01 53.80677 10.72648 53 ft 26 kts 72°
2026-04-22 13:01 53.80735 10.72911 58 ft 22 kts 67°
2026-04-22 13:01 53.80774 10.73073 60 ft 5 kts 93°
2026-04-22 13:01 53.80763 10.73078 56 ft 1 kts 202°
2026-04-22 13:02 53.80741 10.72996 58 ft 17 kts 250°
2026-04-22 13:02 53.80646 10.72502 59 ft 77 kts 251°
2026-04-22 13:02 53.80413 10.71294 126 ft 135 kts 254°
2026-04-22 13:02 53.80109 10.69633 580 ft 157 kts 256°
2026-04-22 13:03 53.79764 10.67787 1137 ft 171 kts 252°
2026-04-22 13:03 53.79294 10.65902 1736 ft 183 kts 251°
2026-04-22 13:03 53.78880 10.63749 2038 ft 201 kts 257°
2026-04-22 13:03 53.78403 10.61317 2059 ft 234 kts 250°
2026-04-22 13:04 53.77755 10.58628 2228 ft 254 kts 251°
2026-04-22 13:04 53.77117 10.55860 2967 ft 251 kts 251°
2026-04-22 13:04 53.76467 10.53112 3586 ft 253 kts 250°
2026-04-22 13:04 53.75804 10.50348 4094 ft 257 kts 251°
2026-04-22 13:05 53.75115 10.47530 4632 ft 262 kts 250°
2026-04-22 13:05 53.74412 10.44641 5094 ft 268 kts 250°
2026-04-22 13:05 53.73703 10.41695 5533 ft 273 kts 250°
2026-04-22 13:05 53.72995 10.38756 6082 ft 273 kts 250°
2026-04-22 13:06 53.72272 10.35776 6689 ft 269 kts 250°
2026-04-22 13:06 53.71590 10.32977 7723 ft 247 kts 250°
2026-04-22 13:06 53.70926 10.30254 8055 ft 256 kts 250°
2026-04-22 13:06 53.70248 10.27449 8522 ft 257 kts 250°
2026-04-22 13:07 53.69581 10.24690 8997 ft 257 kts 251°
2026-04-22 13:07 53.69246 10.21742 9310 ft 257 kts 279°
2026-04-22 13:07 53.69802 10.18917 9801 ft 251 kts 305°
2026-04-22 13:07 53.70976 10.16770 10223 ft 249 kts 321°
2026-04-22 13:08 53.72276 10.14839 10646 ft 249 kts 321°
2026-04-22 13:08 53.73565 10.12875 10853 ft 259 kts 320°
2026-04-22 13:08 53.74940 10.10769 10864 ft 275 kts 320°
2026-04-22 13:08 53.76404 10.08541 10884 ft 290 kts 320°
2026-04-22 13:09 53.77942 10.06192 10899 ft 303 kts 320°
2026-04-22 13:09 53.79540 10.03734 10913 ft 316 kts 320°
2026-04-22 13:09 53.81180 10.01224 10984 ft 324 kts 320°
2026-04-22 13:09 53.82857 9.98656 11327 ft 323 kts 320°
2026-04-22 13:10 53.84521 9.96090 11602 ft 324 kts 320°
2026-04-22 13:10 53.85632 9.94381 11782 ft 325 kts 320°
2026-04-22 13:10 53.87852 9.90969 12102 ft 319 kts 320°
2026-04-22 13:10 53.88924 9.89315 12111 ft 307 kts 320°
2026-04-22 13:11 53.90465 9.86933 12118 ft 291 kts 320°
2026-04-22 13:11 53.92383 9.83968 12116 ft 271 kts 320°
2026-04-22 13:11 53.93312 9.82535 12112 ft 262 kts 320°
2026-04-22 13:11 53.94555 9.80616 12104 ft 249 kts 320°
2026-04-22 13:12 53.95808 9.78673 12117 ft 237 kts 320°
2026-04-22 13:12 53.96998 9.76827 12117 ft 224 kts 321°
2026-04-22 13:12 53.98125 9.75087 12122 ft 213 kts 321°
2026-04-22 13:12 53.99175 9.73455 12114 ft 201 kts 321°
2026-04-22 13:13 54.00175 9.71901 12117 ft 188 kts 321°
2026-04-22 13:13 54.01110 9.70453 12113 ft 175 kts 321°
2026-04-22 13:13 54.01971 9.69109 12112 ft 159 kts 321°
2026-04-22 13:13 54.02749 9.67894 11825 ft 155 kts 322°
2026-04-22 13:14 54.03587 9.66608 11372 ft 163 kts 321°
2026-04-22 13:14 54.04397 9.65323 11134 ft 159 kts 321°
2026-04-22 13:14 54.05276 9.63976 10510 ft 185 kts 320°
2026-04-22 13:14 54.06230 9.62486 10358 ft 181 kts 319°
2026-04-22 13:15 54.07117 9.61070 10348 ft 169 kts 320°
2026-04-22 13:15 54.07943 9.59788 10340 ft 151 kts 321°
2026-04-22 13:15 54.08728 9.58592 9925 ft 156 kts 320°
2026-04-22 13:15 54.09531 9.57321 9591 ft 156 kts 320°